Meteopurmerend
purmerend
Purmerend - Baaienwijk



My webcam  My webcam


Onweer radar Meer informatie blitzortung!


Regen radar Meer informatie rain snow radar


Bezoek onze andere website:

CandyAppleRed WebdesignWebdesign Purmerend Candy Apple Red

MeteopurmerendBlog

Template documentation
and downloads



Het weer levert geen direct gevaar op.    Er zijn geen waarschuwingen afgegeven.

15 daagse weersverwachting Örebro (SE)

  • Overzicht
  • Per uur
  • 15 dagen
  • Extra
  • Vergelijk
  • Kaarten
  • Dagkaart
  • Meer »
  • Info
  • Statistieken
  • Directe link
    Temp 6h Neerslag Wind  
 04:06     21:49    Daglengte: 17:43 Vandaag
14:00
13°
3.1 mm
2
20:00
12°
9.7 mm
4
 04:04     21:50    Daglengte: 17:46 Morgen
02:00
1.7 mm
4
08:00
10°
 
5
14:00
14°
 
5
20:00
11°
2.0 mm
3
 04:03     21:52    Daglengte: 17:49 Zaterdag 28 Mei
02:00
7.8 mm
4
08:00
11°
11.3 mm
4
14:00
15°
3.2 mm
5
20:00
14°
13.1 mm
4
 04:01     21:54    Daglengte: 17:53 Zondag 29 Mei
02:00
3.3 mm
4
Locatie info
Region: Örebro län
Latitude: 59.2708°N
Longitude: 15.2176°E
35 masl
Postcode: 702 12
Temp/Neerslag /Baro Onweer/Dauwpunt
    Temp Baro 1h Neerslag Dauwpunt Wind UV Bewolking  
 04:06     21:49    Daglengte: 17:43 Vandaag
09:00
11°
1001.0 hPa
48%
10.0°
3
Windvlaag: 6.2 m/s
71%
10:00
11°
1000.6 hPa 0.2 mm
81%
10.6°
3
Windvlaag: 6.6 m/s
80%
11:00
11°
1000.2 hPa 0.7 mm
78%
10.2°
3
Windvlaag: 6.5 m/s
86%
12:00
11°
999.9 hPa 1.1 mm
78%
10.3°
3
Windvlaag: 6 m/s
86%
13:00
12°
999.5 hPa 1.0 mm
82%
10.7°
2
Windvlaag: 5.4 m/s
86%
14:00
13°
999.1 hPa
78%
12.1°
2
Windvlaag: 4.5 m/s
72%
15:00
13°
999.0 hPa 1.5 mm
77%
11.7°
3
Windvlaag: 5.6 m/s
70%
16:00
13°
999.0 hPa 1.4 mm
82%
11.3°
4
Windvlaag: 6.1 m/s
51%
17:00
13°
999.0 hPa 1.5 mm
82%
11.7°
4
Windvlaag: 3.2 m/s
39%
18:00
13°
999.0 hPa 1.8 mm
82%
11.6°
4
Windvlaag: 3.2 m/s
60%
19:00
12°
999.2 hPa 1.7 mm
82%
10.7°
4
Windvlaag: 3.9 m/s
64%
20:00
12°
999.4 hPa 1.7 mm
82%
10.4°
4
Windvlaag: 3.4 m/s
65%
21:00
11°
999.6 hPa 1.7 mm
78%
9.9°
4
Windvlaag: 3.1 m/s
66%
22:00
11°
999.7 hPa
23%
9.7°
3
Windvlaag: 3 m/s
50%
23:00
10°
999.7 hPa
77%
9.2°
3
Windvlaag: 2.8 m/s
53%
 04:04     21:50    Daglengte: 17:46 Morgen
00:00
Voelt als: 7.7°
999.4 hPa
82%
8.7°
3
Windvlaag: 4.2 m/s
70%
01:00
Voelt als: 7.3°
999.2 hPa
82%
8.2°
4
Windvlaag: 4.1 m/s
70%
02:00
Voelt als: 6.8°
998.9 hPa
77%
7.8°
4
Windvlaag: 4.5 m/s
33%
03:00
Voelt als: 5.8°
998.5 hPa
70%
7.2°
4
Windvlaag: 3.9 m/s
49%
04:00
Voelt als: 5.0°
998.2 hPa
17%
6.5°
4
Windvlaag: 5.5 m/s
13%
05:00
Voelt als: 4.9°
997.9 hPa
14%
6.2°
4
Windvlaag: 4.7 m/s
16%
06:00
Voelt als: 5.3°
997.7 hPa
14%
6.4°
4
Windvlaag: 3 m/s
15%
07:00
Voelt als: 6.2°
997.5 hPa
14%
6.9°
5
Windvlaag: 2.8 m/s
17%
08:00
10°
997.1 hPa
15%
6.8°
5
Windvlaag: 2.5 m/s
35%
09:00
12°
996.9 hPa
14%
5.3°
5
Windvlaag: 1.6 m/s
33%
10:00
13°
996.8 hPa
14%
4.3°
5
Windvlaag: 1.2 m/s
42%
11:00
13°
996.6 hPa
14%
6.2°
6
Windvlaag: 1.2 m/s
76%
12:00
13°
996.5 hPa
14%
5.5°
6
Windvlaag: 0.6 m/s
71%
13:00
13°
996.4 hPa
14%
8.3°
6
Windvlaag: 0.7 m/s
78%
14:00
14°
996.2 hPa
14%
6.8°
5
Windvlaag: 0.6 m/s
82%
15:00
13°
996.2 hPa
14%
8.2°
5
Windvlaag: -0.5 m/s
70%
16:00
13°
996.2 hPa
17%
8.5°
5
Windvlaag: -0.1 m/s
63%
17:00
13°
996.1 hPa
24%
7.3°
5
Windvlaag: -0.4 m/s
64%
18:00
12°
996.1 hPa
34%
8.8°
4
Windvlaag: -1.1 m/s
78%
19:00
12°
996.1 hPa
78%
7.8°
4
Windvlaag: -1.3 m/s
86%
20:00
11°
996.1 hPa 2.0 mm
82%
7.5°
3
Windvlaag: 0.1 m/s
83%
21:00
10°
996.2 hPa 2.2 mm
82%
7.4°
3
Windvlaag: -0 m/s
81%
22:00
Voelt als: 7.9°
996.2 hPa
82%
7.9°
3
Windvlaag: 0.6 m/s
81%
23:00
Voelt als: 7.1°
996.3 hPa
82%
7.7°
3
Windvlaag: -0.4 m/s
86%
 04:03     21:52    Daglengte: 17:49 Zaterdag 28 Mei
00:00
Voelt als: 7.1°
996.5 hPa 1.9 mm
82%
7.1°
3
Windvlaag: -1.2 m/s
86%
01:00
Voelt als: 6.9°
996.6 hPa 1.9 mm
82%
7.1°
3
Windvlaag: -2.3 m/s
86%
02:00
Voelt als: 6.8°
996.6 hPa 1.8 mm
78%
7.5°
4
Windvlaag: -2.6 m/s
85%
03:00
Voelt als: 6.7°
996.6 hPa
22%
7.3°
3
Windvlaag: -3.6 m/s
58%
04:00
Voelt als: 6.7°
996.8 hPa
18%
7.1°
3
Windvlaag: -3.4 m/s
50%
05:00
Voelt als: 6.3°
997.2 hPa 3.1 mm
21%
5.3°
4
Windvlaag: -3.3 m/s
97%
06:00
Voelt als: 6.9°
997.5 hPa 3.1 mm
92%
6.0°
4
Windvlaag: -3.6 m/s
94%
07:00
10°
Voelt als: 7.8°
997.8 hPa 3.2 mm
88%
5.6°
4
Windvlaag: -3.7 m/s
87%
08:00
11°
998.2 hPa 2.0 mm
99%
4.0°
4
Windvlaag: -3.2 m/s
82%
09:00
12°
998.6 hPa
90%
2.9°
4
Windvlaag: -3.2 m/s
88%
10:00
13°
999.0 hPa
95%
2.2°
5
Windvlaag: -3.6 m/s
72%
11:00
13°
999.5 hPa
37%
2.3°
5
Windvlaag: -3.6 m/s
96%
12:00
14°
999.9 hPa
94%
1.1°
5
Windvlaag: -3.8 m/s
95%
13:00
15°
1000.0 hPa
31%
1.9°
5
Windvlaag: -4.1 m/s
96%
14:00
15°
1000.2 hPa 3.2 mm
92%
2.5°
5
Windvlaag: -3.8 m/s
96%
15:00
15°
1000.5 hPa 3.4 mm
87%
1.7°
5
Windvlaag: -3.7 m/s
94%
16:00
15°
1001.0 hPa 3.3 mm
35%
1.5°
5
Windvlaag: -3.3 m/s
94%
17:00
14°
1001.5 hPa
98%
0.8°
4
Windvlaag: -2.2 m/s
85%
18:00
15°
1001.8 hPa
36%
0.6°
3
Windvlaag: 0.9 m/s
95%
19:00
14°
1001.9 hPa 3.2 mm
24%
0.9°
3
Windvlaag: 5.5 m/s
92%
20:00
14°
1002.2 hPa 3.2 mm
62%
1.2°
4
Windvlaag: 6 m/s
76%
21:00
13°
1002.6 hPa 3.3 mm
25%
2.4°
4
Windvlaag: 4.6 m/s
66%
22:00
11°
1003.1 hPa
21%
2.3°
4
Windvlaag: 4.1 m/s
27%
23:00
10°
1003.6 hPa
21%
2.1°
3
Windvlaag: 3.3 m/s
19%
 04:01     21:54    Daglengte: 17:53 Zondag 29 Mei
00:00
10°
Voelt als: 7.9°
1003.3 hPa
21%
2.5°
4
Windvlaag: 8.6 m/s
0%
01:00
Voelt als: 7.0°
1003.5 hPa
21%
2.4°
4
Windvlaag: 9.7 m/s
0%
02:00
Voelt als: 6.2°
1003.7 hPa
21%
1.3°
4
Windvlaag: 9.6 m/s
0%
03:00
Voelt als: 5.5°
1003.8 hPa
21%
1.5°
3
Windvlaag: 10.7 m/s
0%
04:00
Voelt als: 4.9°
1004.0 hPa
21%
1.4°
3
Windvlaag: 9.7 m/s
40%
05:00
Voelt als: 4.9°
1004.1 hPa
21%
1.0°
3
Windvlaag: 9.3 m/s
41%
06:00
Voelt als: 5.8°
1004.2 hPa
21%
0.8°
3
Windvlaag: 10 m/s
31%
07:00
Voelt als: 6.9°
1004.2 hPa
21%
1.2°
4
Windvlaag: 7.4 m/s
2%
08:00
10°
1004.3 hPa
21%
1.7°
4
Windvlaag: 5.2 m/s
5%
Temp/Neerslag /Baro Onweer/Dauwpunt
    Temp Baro Neerslag Dauwpunt Wind Bewolking  
 04:06     21:49    Daglengte: 17:43 Vandaag
11:00
11°
1000.2 hPa 1.0 mm 10.2°
3
86%
14:00
13°
999.1 hPa 2.2 mm 12.1°
2
72%
17:00
13°
999.0 hPa 4.5 mm 11.7°
4
39%
20:00
12°
999.4 hPa 5.2 mm 10.4°
4
65%
23:00
10°
999.7 hPa 1.7 mm 9.2°
3
53%
 04:04     21:50    Daglengte: 17:46 Morgen
02:00
Voelt als: 6.8°
998.9 hPa   7.8°
4
33%
05:00
Voelt als: 4.9°
997.9 hPa   6.2°
4
16%
08:00
10°
997.1 hPa   6.8°
5
35%
11:00
13°
996.6 hPa   6.2°
6
76%
14:00
14°
996.2 hPa   6.8°
5
82%
17:00
13°
996.1 hPa   7.3°
5
64%
20:00
11°
996.1 hPa 2.0 mm 7.5°
3
83%
23:00
Voelt als: 7.1°
996.3 hPa 2.2 mm 7.7°
3
86%
 04:03     21:52    Daglengte: 17:49 Zaterdag 28 Mei
02:00
Voelt als: 6.8°
996.6 hPa 5.7 mm 7.5°
4
85%
05:00
Voelt als: 6.3°
997.2 hPa 3.1 mm 5.3°
4
97%
08:00
11°
998.2 hPa 8.3 mm 4.0°
4
82%
11:00
13°
999.5 hPa   2.3°
5
96%
14:00
15°
1000.2 hPa 3.2 mm 2.5°
5
96%
17:00
14°
1001.5 hPa 6.6 mm 0.8°
4
85%
20:00
14°
1002.2 hPa 6.4 mm 1.2°
4
76%
23:00
10°
1003.6 hPa 3.3 mm 2.1°
3
19%
 04:01     21:54    Daglengte: 17:53 Zondag 29 Mei
02:00
Voelt als: 6.2°
1003.7 hPa   1.3°
4
0%
05:00
Voelt als: 4.9°
1004.1 hPa   1.0°
3
41%
08:00
10°
1004.3 hPa   1.7°
4
5%
11:00
13°
1006.7 hPa 14.2 mm 1.4°
3
0%
14:00
13°
1007.1 hPa 14.2 mm 1.4°
3
1%
17:00
13°
1007.9 hPa 14.2 mm 2.7°
2
1%
20:00
12°
1008.2 hPa 14.2 mm 4.3°
1
1%
23:00
10°
1009.0 hPa 14.2 mm 2.4°
1
1%
 04:00     21:56    Daglengte: 17:56 Maandag 30 Mei
02:00
Voelt als: 9.4°
1009.0 hPa 14.2 mm 2.3°
1
1%
05:00
Voelt als: 9.0°
1009.1 hPa 14.2 mm 2.9°
1
1%
08:00
11°
1009.8 hPa 14.2 mm 4.3°
0
1%
11:00
16°
1009.5 hPa 14.2 mm 3.2°
1
1%
14:00
16°
1009.7 hPa 14.3 mm 2.7°
1
1%
17:00
16°
1010.0 hPa 14.3 mm 3.2°
1
1%
20:00
14°
1010.2 hPa 14.3 mm 5.8°
1
1%
23:00
1011.4 hPa 14.3 mm 4.1°
1
1%
 03:58     21:58    Daglengte: 18:00 Dinsdag 31 Mei
02:00
Voelt als: 6.9°
1012.0 hPa 14.3 mm 3.7°
0
1%
05:00
Voelt als: 7.0°
1012.6 hPa 14.3 mm 4.8°
1
1%
08:00
13°
1013.2 hPa 14.4 mm 6.3°
1
1%
11:00
14°
1013.5 hPa 15.5 mm 8.7°
2
1%
14:00
17°
1013.2 hPa 15.9 mm 6.7°
2
1%
17:00
18°
1012.8 hPa 16.0 mm 4.6°
2
1%
20:00
13°
1013.6 hPa 16.7 mm 10.0°
2
1%
23:00
Voelt als: 8.2°
1014.7 hPa 16.7 mm 6.3°
2
1%
 03:57     21:59    Daglengte: 18:02 Woensdag 01 Jun
02:00
Voelt als: 6.5°
1015.6 hPa 16.7 mm 5.4°
2
1%
05:00
Voelt als: 5.6°
1016.5 hPa 16.7 mm 5.7°
2
0%
08:00
13°
1017.5 hPa 16.7 mm 4.8°
3
0%
11:00
17°
1017.5 hPa 16.7 mm 4.0°
4
1%
14:00
19°
1017.1 hPa 16.7 mm 4.9°
4
0%
17:00
17°
1017.3 hPa 16.7 mm 6.2°
4
1%
20:00
15°
1017.5 hPa 16.7 mm 4.8°
3
1%
23:00
Voelt als: 7.8°
1018.1 hPa 16.7 mm 5.3°
2
1%
 03:55     22:01    Daglengte: 18:06 Donderdag 02 Jun
02:00
Voelt als: 6.1°
1018.4 hPa 16.7 mm 5.9°
2
0%
05:00
Voelt als: 7.6°
1017.9 hPa 16.7 mm 5.7°
2
1%
08:00
13°
1017.7 hPa 33.5 mm 6.0°
3
1%
14:00
11°
1016.9 hPa 37.6 mm 10.4°
2
1%
20:00
13°
1016.0 hPa 39.8 mm 12.2°
2
1%
 03:54     22:02    Daglengte: 18:08 Vrijdag 03 Jun
02:00
10°
Voelt als: 9.3°
1016.6 hPa 40.2 mm 9.4°
2
1%
08:00
13°
1016.9 hPa 40.2 mm 11.1°
2
1%
14:00
19°
1016.0 hPa 40.8 mm 12.9°
3
1%
20:00
16°
1014.0 hPa 43.5 mm 14.4°
2
1%
 03:53     22:04    Daglengte: 18:11 Zaterdag 04 Jun
02:00
13°
1012.4 hPa 46.0 mm 12.6°
1
1%
08:00
15°
1010.6 hPa 46.5 mm 13.2°
2
1%
14:00
18°
1008.6 hPa 51.8 mm 14.8°
2
1%
20:00
17°
1006.6 hPa 56.8 mm 13.9°
2
1%
 03:52     22:05    Daglengte: 18:13 Zondag 05 Jun
02:00
12°
1006.2 hPa 58.0 mm 11.2°
2
0%
08:00
13°
1015.2 hPa 0.3 mm 7.8°
0
54%
14:00
19°
1014.6 hPa 0.7 mm 8.0°
0
53%
20:00
16°
1014.1 hPa 1.2 mm 9.2°
1
61%
 03:51     22:07    Daglengte: 18:16 Maandag 06 Jun
02:00
10°
1014.9 hPa 0.5 mm 6.9°
0
62%
08:00
13°
1014.7 hPa 0.4 mm 8.3°
1
69%
14:00
19°
1013.8 hPa 1.3 mm 9.6°
0
67%
20:00
17°
1012.9 hPa 1.7 mm 9.9°
0
69%
 03:50     22:08    Daglengte: 18:18 Dinsdag 07 Jun
02:00
10°
1013.2 hPa 0.3 mm 7.3°
0
43%
08:00
13°
1012.6 hPa 0.2 mm 8.2°
1
57%
14:00
18°
1011.4 hPa 0.7 mm 9.3°
0
68%
20:00
16°
1010.7 hPa 0.9 mm 10.0°
0
68%
 03:49     22:09    Daglengte: 18:20 Woensdag 08 Jun
02:00
10°
1011.2 hPa 0.9 mm 8.0°
0
58%
08:00
13°
1010.8 hPa 1.5 mm 9.2°
0
59%
14:00
19°
1009.9 hPa 2.2 mm 9.7°
1
71%
20:00
16°
1009.6 hPa 1.8 mm 10.2°
1
72%
 03:49     22:11    Daglengte: 18:22 Donderdag 09 Jun
02:00
11°
1010.3 hPa 0.6 mm 8.2°
0
65%
08:00
13°
1010.5 hPa 0.3 mm 9.0°
0
72%
14:00
19°
1009.9 hPa 0.6 mm 9.1°
1
70%
20:00
17°
1009.6 hPa 1.1 mm 9.8°
1
66%
 03:48     22:12    Daglengte: 18:24 Vrijdag 10 Jun
02:00
11°
1010.7 hPa 0.7 mm 8.8°
1
59%
08:00
14°
1010.8 hPa 0.4 mm 9.6°
1
60%
  CAPE Lifted Index Hail Supercell Tornado SRH 3km CL BTM PRES CL TOP PRES Swiss DWD icon SMHI TS
 04:06     21:49    Daglengte: 17:43 Vandaag
09:00 1 J/kg 2.3 K 0 % 0 % 0 % 0 m²/s² 0 0 2.96 3
10:00 0 J/kg 0.9 K 0 % 0 % 0 % 0 m²/s² 0 0 1.77 3
11:00 28 J/kg 0.2 K 0 % 0 % 0 % 0 m²/s² 0 0 0.8 61
12:00 216 J/kg -0.8 K 0 % 0 % 0 % 0 m²/s² 0 0 -0.41 61
13:00 372 J/kg -1.5 K 0 % 0 % 0 % 0 m²/s² 0 0 -0.9 61
14:00 476 J/kg -2.2 K 0 % 0 % 0 % 0 m²/s² 0 0 -0.88 3
15:00 425 J/kg -2.1 K 0 % 0 % 0 % 0 m²/s² 0 0 -0.24 80
16:00 299 J/kg -1.5 K 0 % 0 % 0 % 0 m²/s² 0 0 0.42 80
17:00 96 J/kg -0.7 K 0 % 0 % 0 % 0 m²/s² 0 0 -0.25 3
18:00 379 J/kg -2.1 K 0 % 0 % 0 % 0 m²/s² 0 0 -0.78 80
19:00 33 J/kg -0.4 K 0 % 0 % 0 % 0 m²/s² 0 0 0.77 80
20:00 10 J/kg -0.6 K 0 % 0 % 0 % 0 m²/s² 0 0 -0.39 80
21:00 0 J/kg 0.2 K 0 % 0 % 0 % 0 m²/s² 0 0 0.47 80
22:00 0 J/kg 0.3 K 0 % 0 % 0 % 0 m²/s² 0 0 0.9 3
23:00 0 J/kg 0.2 K 0 % 0 % 0 % 0 m²/s² 0 0 0.98 3
 04:04     21:50    Daglengte: 17:46 Morgen
00:00 0 J/kg 1.0 K 0 % 0 % 0 % 0 m²/s² 0 0 1.96 3
01:00 0 J/kg -0.6 K 0 % 0 % 0 % 0 m²/s² 0 0 0.69 3
02:00 0 J/kg -0.1 K 0 % 0 % 0 % 0 m²/s² 0 0 1.73 61
03:00 0 J/kg 0.9 K 0 % 0 % 0 % 0 m²/s² 0 0 4.08 3
04:00 0 J/kg 1.1 K 0 % 0 % 0 % 0 m²/s² 0 0 5.75 0
05:00 0 J/kg 1.3 K 0 % 0 % 0 % 0 m²/s² 0 0 6.19 1
06:00 0 J/kg 1.8 K 0 % 0 % 0 % 0 m²/s² 0 0 4.95 1
07:00 0 J/kg 2.2 K 0 % 0 % 0 % 0 m²/s² 0 0 3.19 1
08:00 0 J/kg 2.1 K 0 % 0 % 0 % 0 m²/s² 0 0 3.27 3
09:00 46 J/kg 1.4 K 0 % 0 % 0 % 0 m²/s² 0 0 2.69 3
10:00 90 J/kg 1.3 K 0 % 0 % 0 % 0 m²/s² 0 0 2.74 3
11:00 82 J/kg 1.3 K 0 % 0 % 0 % 0 m²/s² 0 0 4.06 3
12:00 83 J/kg 1.3 K 0 % 0 % 0 % 0 m²/s² 0 0 4.15 3
13:00 76 J/kg 1.2 K 0 % 0 % 0 % 0 m²/s² 0 0 3.6 3
14:00 77 J/kg 1.3 K 0 % 0 % 0 % 0 m²/s² 0 0 3.25 3
15:00 117 J/kg 1.1 K 0 % 0 % 0 % 0 m²/s² 0 0 2.06 3
16:00 78 J/kg 1.0 K 0 % 0 % 0 % 0 m²/s² 0 0 1.48 3
17:00 39 J/kg 1.7 K 0 % 0 % 0 % 0 m²/s² 0 0 2.06 3
18:00 27 J/kg 0.9 K 0 % 0 % 0 % 0 m²/s² 0 0 1.41 3
19:00 25 J/kg 1.0 K 0 % 0 % 0 % 0 m²/s² 0 0 1.54 61
20:00 43 J/kg 0.6 K 0 % 0 % 0 % 0 m²/s² 0 0 1.11 61
21:00 0 J/kg 0.2 K 0 % 0 % 0 % 0 m²/s² 0 0 0.95 61
22:00 0 J/kg 0.4 K 0 % 0 % 0 % 0 m²/s² 0 0 0.85 61
23:00 11 J/kg 1.6 K 0 % 0 % 0 % 0 m²/s² 0 0 2.23 61
 04:03     21:52    Daglengte: 17:49 Zaterdag 28 Mei
00:00 0 J/kg 2.7 K 0 % 0 % 0 % 0 m²/s² 0 0 3.24 61
01:00 0 J/kg 2.2 K 0 % 0 % 0 % 0 m²/s² 0 0 2.95 61
02:00 0 J/kg 1.1 K 0 % 0 % 0 % 0 m²/s² 0 0 1.43 61
03:00 0 J/kg 2.2 K 0 % 0 % 0 % 0 m²/s² 0 0 2.53 3
04:00 0 J/kg 2.6 K 0 % 0 % 0 % 0 m²/s² 0 0 2.93 3
05:00 0 J/kg 3.3 K 0 % 0 % 0 % 0 m²/s² 0 0 3.57 3
06:00 0 J/kg 3.6 K 0 % 0 % 0 % 0 m²/s² 0 0 3.87 3
07:00 0 J/kg 4.3 K 0 % 0 % 0 % 0 m²/s² 0 0 4.6 3
08:00 0 J/kg 5.9 K 0 % 0 % 0 % 0 m²/s² 0 0 6.2 80
09:00 0 J/kg 5.8 K 0 % 0 % 0 % 0 m²/s² 0 0 6.34 3
10:00 2 J/kg 5.9 K 0 % 0 % 0 % 0 m²/s² 0 0 6.65 3
11:00 0 J/kg 6.4 K 0 % 0 % 0 % 0 m²/s² 0 0 6.91 3
12:00 3 J/kg 5.8 K 0 % 0 % 0 % 0 m²/s² 0 0 6.25 3
13:00 10 J/kg 5.0 K 0 % 0 % 0 % 0 m²/s² 0 0 6.44 3
14:00 21 J/kg 4.8 K 0 % 0 % 0 % 0 m²/s² 0 0 6.78 3
15:00 20 J/kg 5.4 K 0 % 0 % 0 % 0 m²/s² 0 0 7.44 3
16:00 15 J/kg 6.0 K 0 % 0 % 0 % 0 m²/s² 0 0 8.46 3
17:00 9 J/kg 6.5 K 0 % 0 % 0 % 0 m²/s² 0 0 10.01 3
18:00 13 J/kg 6.3 K 0 % 0 % 0 % 0 m²/s² 0 0 9.18 3
19:00 9 J/kg 6.5 K 0 % 0 % 0 % 0 m²/s² 0 0 9.32 3
20:00 4 J/kg 6.4 K 0 % 0 % 0 % 0 m²/s² 0 0 9.28 3
21:00 3 J/kg 6.6 K 0 % 0 % 0 % 0 m²/s² 0 0 9.24 3
22:00 0 J/kg 7.1 K 0 % 0 % 0 % 0 m²/s² 0 0 9.68 2
23:00 0 J/kg 7.6 K 0 % 0 % 0 % 0 m²/s² 0 0 10.18 1
 04:01     21:54    Daglengte: 17:53 Zondag 29 Mei
00:00 0 J/kg 8.2 K 0 % 0 % 0 % 0 m²/s² 0 0 10.75 2
01:00 0 J/kg 8.7 K 0 % 0 % 0 % 0 m²/s² 0 0 11.19 2
02:00 0 J/kg 8.8 K 0 % 0 % 0 % 0 m²/s² 0 0 11.35 2
03:00 0 J/kg 9.0 K 0 % 0 % 0 % 0 m²/s² 0 0 11.79 2
04:00 0 J/kg 9.1 K 0 % 0 % 0 % 0 m²/s² 0 0 12.04 2
05:00 0 J/kg 8.9 K 0 % 0 % 0 % 0 m²/s² 0 0 11.6 2
06:00 0 J/kg 8.5 K 0 % 0 % 0 % 0 m²/s² 0 0 10.96 2
07:00 0 J/kg 8.2 K 0 % 0 % 0 % 0 m²/s² 0 0 10.39 1
08:00 0 J/kg 8.3 K 0 % 0 % 0 % 0 m²/s² 0 0 9.83 1
Temp Baro Wind Neerslag
  EWN Forecast EWN WRFDA DWD ICON FMI HIRLAM MET Norway GFS
 04:06     21:49    Daglengte: 17:43 Vandaag
11:00 11.3° 1000.2 hPa 2.6 m/s 1.0 mm 11.6° 998.2 hPa 4.0 m/s 1.9 mm 11.9° 1001.0 hPa 2.3 m/s -1.3 mm 10.1° 1000.2 hPa 2.2 m/s 0.0 mm 9.5° 1000.5 hPa 2.8 m/s
14:00 13.3° 999.1 hPa 1.7 m/s 2.2 mm 12.9° 997.3 hPa 2.7 m/s 11.3 mm 13.5° 1000.2 hPa 1.6 m/s 1.1 mm 12.3° 999.0 hPa 1.4 m/s 0.0 mm 13.5° 999.0 hPa 2.6 m/s
17:00 13.0° 999.0 hPa 3.8 m/s 4.5 mm 11.6° 997.3 hPa 6.7 m/s 16.3 mm 13.9° 1000.1 hPa 3.0 m/s 1.1 mm 11.3° 999.0 hPa 3.6 m/s 0.0 mm 13.3° 998.6 hPa 2.6 m/s
20:00 11.6° 999.4 hPa 4.3 m/s 5.2 mm 11.3° 998.1 hPa 6.7 m/s 20.4 mm 12.4° 999.6 hPa 3.0 m/s 1.5 mm 10.4° 999.9 hPa 3.9 m/s 0.0 mm 11.1° 999.2 hPa 3.5 m/s
23:00 10.1° 999.7 hPa 3.2 m/s 1.7 mm 10.3° 997.6 hPa 7.1 m/s 22.8 mm 10.9° 999.7 hPa 2.9 m/s 0.2 mm 9.4° 1001.1 hPa 1.4 m/s 0.0 mm 7.8° 999.6 hPa 2.3 m/s
 04:04     21:50    Daglengte: 17:46 Morgen
02:00 9.1° 998.9 hPa 4.2 m/s 0.0 mm 8.8° 996.7 hPa 6.3 m/s 22.8 mm 9.4° 998.7 hPa 4.2 m/s 0.3 mm 8.0° 1000.6 hPa 2.9 m/s 0.0 mm 7.8° 998.6 hPa 4.3 m/s
05:00 7.5° 997.9 hPa 4.2 m/s 0.0 mm 6.5° 995.7 hPa 5.0 m/s 22.9 mm 7.7° 997.6 hPa 4.1 m/s 0.1 mm 7.2° 999.8 hPa 3.3 m/s 0.0 mm 7.2° 997.7 hPa 4.9 m/s
08:00 10.1° 997.1 hPa 4.9 m/s 0.0 mm 10.6° 994.8 hPa 6.0 m/s 22.9 mm 10.4° 996.2 hPa 4.9 m/s 0.0 mm 10.2° 999.1 hPa 3.7 m/s 0.0 mm 10.5° 996.3 hPa 4.7 m/s
11:00 13.0° 996.6 hPa 5.6 m/s 0.0 mm 14.2° 994.1 hPa 7.4 m/s 22.9 mm 12.9° 995.9 hPa 5.6 m/s 0.0 mm 14.2° 998.4 hPa 4.0 m/s 0.0 mm 13.8° 995.3 hPa 3.4 m/s
14:00 13.7° 996.2 hPa 5.4 m/s 0.0 mm 14.9° 993.7 hPa 7.2 m/s 22.9 mm 13.6° 995.5 hPa 5.5 m/s 0.0 mm 14.7° 997.9 hPa 3.3 m/s 0.0 mm 12.8° 995.6 hPa 4.3 m/s
17:00 12.8° 996.1 hPa 4.9 m/s 0.0 mm 13.8° 993.8 hPa 5.5 m/s 24.1 mm 12.9° 995.4 hPa 4.9 m/s 0.0 mm 13.7° 997.6 hPa 3.8 m/s 0.0 mm 12.4° 995.2 hPa 4.7 m/s
20:00 11.1° 996.1 hPa 3.4 m/s 2.0 mm 12.6° 993.4 hPa 3.9 m/s 25.1 mm 11.3° 995.2 hPa 3.3 m/s 0.2 mm 11.7° 997.3 hPa 3.1 m/s 0.0 mm 9.0° 996.0 hPa 3.1 m/s
23:00 8.7° 996.3 hPa 2.9 m/s 2.2 mm 11.7° 993.0 hPa 4.9 m/s 25.5 mm 10.2° 995.8 hPa 2.9 m/s 1.2 mm 8.2° 997.5 hPa 1.5 m/s 0.0 mm 8.0° 996.6 hPa 3.2 m/s
 04:03     21:52    Daglengte: 17:49 Zaterdag 28 Mei
02:00 8.8° 996.6 hPa 3.5 m/s 5.7 mm 10.6° 993.3 hPa 3.7 m/s 25.5 mm 9.9° 996.1 hPa 3.7 m/s 0.6 mm 8.4° 997.0 hPa 1.9 m/s 0.0 mm 8.2° 997.1 hPa 3.7 m/s
05:00 8.7° 997.2 hPa 4.2 m/s 3.1 mm 10.4° 994.3 hPa 4.6 m/s 25.9 mm 8.2° 997.4 hPa 2.5 m/s 0.0 mm 7.9° 997.8 hPa 3.8 m/s
08:00 10.7° 998.2 hPa 4.4 m/s 8.3 mm 13.2° 995.3 hPa 5.9 m/s 27.6 mm 10.8° 998.3 hPa 3.4 m/s 0.2 mm 8.0° 998.8 hPa 4.1 m/s
11:00 13.4° 999.5 hPa 4.9 m/s 0.0 mm 15.6° 996.2 hPa 7.6 m/s 27.8 mm 13.7° 999.6 hPa 4.6 m/s 0.0 mm 10.8° 999.7 hPa 4.0 m/s
14:00 15.4° 1000.2 hPa 4.7 m/s 3.2 mm 18.0° 997.1 hPa 8.1 m/s 27.8 mm 15.8° 1000.0 hPa 3.7 m/s 0.0 mm 12.8° 1001.2 hPa 2.9 m/s
17:00 14.3° 1001.5 hPa 4.3 m/s 6.6 mm 16.7° 998.9 hPa 8.3 m/s 27.8 mm 14.6° 1001.2 hPa 4.3 m/s 0.0 mm 15.3° 1001.9 hPa 5.5 m/s
20:00 13.9° 1002.2 hPa 3.8 m/s 6.4 mm 15.2° 999.9 hPa 6.5 m/s 27.8 mm 14.6° 1001.8 hPa 3.6 m/s 0.0 mm 12.5° 1003.4 hPa 5.4 m/s
23:00 10.2° 1003.6 hPa 3.4 m/s 3.3 mm 10.2° 1001.5 hPa 3.7 m/s 27.8 mm 10.7° 1003.3 hPa 3.6 m/s 0.0 mm 8.5° 1005.3 hPa 4.3 m/s
 04:01     21:54    Daglengte: 17:53 Zondag 29 Mei
02:00 8.3° 1003.7 hPa 3.6 m/s 0.0 mm 7.8° 1001.6 hPa 4.7 m/s 27.8 mm 8.5° 1004.2 hPa 3.3 m/s 0.0 mm 6.6° 1005.8 hPa 3.7 m/s
05:00 7.1° 1004.1 hPa 3.1 m/s 0.0 mm 6.3° 1001.6 hPa 4.3 m/s 27.8 mm 7.3° 1004.8 hPa 2.8 m/s 0.0 mm 5.6° 1006.2 hPa 3.0 m/s
08:00 10.3° 1004.3 hPa 3.7 m/s 0.0 mm 10.0° 1001.5 hPa 4.0 m/s 27.8 mm 10.4° 1005.0 hPa 3.6 m/s 0.0 mm 10.1° 1006.5 hPa 3.8 m/s
11:00 12.8° 1006.7 hPa 2.7 m/s 14.2 mm 12.8° 1006.7 hPa 2.7 m/s 14.2 mm
14:00 13.5° 1007.1 hPa 2.6 m/s 14.2 mm 13.5° 1007.1 hPa 2.6 m/s 14.2 mm
17:00 13.5° 1007.9 hPa 2.0 m/s 14.2 mm 13.5° 1007.9 hPa 2.0 m/s 14.2 mm
20:00 12.3° 1008.2 hPa 0.7 m/s 14.2 mm 12.3° 1008.2 hPa 0.7 m/s 14.2 mm
23:00 10.2° 1009.0 hPa 0.6 m/s 14.2 mm 10.2° 1009.0 hPa 0.6 m/s 14.2 mm
 04:00     21:56    Daglengte: 17:56 Maandag 30 Mei
02:00 9.4° 1009.0 hPa 0.9 m/s 14.2 mm 9.4° 1009.0 hPa 0.9 m/s 14.2 mm
05:00 9.0° 1009.1 hPa 0.8 m/s 14.2 mm 9.0° 1009.1 hPa 0.8 m/s 14.2 mm
08:00 11.0° 1009.8 hPa 0.2 m/s 14.2 mm 11.0° 1009.8 hPa 0.2 m/s 14.2 mm
11:00 16.2° 1009.5 hPa 0.6 m/s 14.2 mm 16.2° 1009.5 hPa 0.6 m/s 14.2 mm
14:00 15.7° 1009.7 hPa 1.0 m/s 14.3 mm 15.7° 1009.7 hPa 1.0 m/s 14.3 mm
17:00 15.9° 1010.0 hPa 1.2 m/s 14.3 mm 15.9° 1010.0 hPa 1.2 m/s 14.3 mm
20:00 14.4° 1010.2 hPa 1.3 m/s 14.3 mm 14.4° 1010.2 hPa 1.3 m/s 14.3 mm
23:00 8.4° 1011.4 hPa 1.0 m/s 14.3 mm 8.4° 1011.4 hPa 1.0 m/s 14.3 mm
 03:58     21:58    Daglengte: 18:00 Dinsdag 31 Mei
02:00 6.9° 1012.0 hPa 0.2 m/s 14.3 mm 6.9° 1012.0 hPa 0.2 m/s 14.3 mm
05:00 7.0° 1012.6 hPa 0.6 m/s 14.3 mm 7.0° 1012.6 hPa 0.6 m/s 14.3 mm
08:00 12.6° 1013.2 hPa 0.8 m/s 14.4 mm 12.6° 1013.2 hPa 0.8 m/s 14.4 mm
11:00 14.5° 1013.5 hPa 2.1 m/s 15.5 mm 14.5° 1013.5 hPa 2.1 m/s 15.5 mm
14:00 16.6° 1013.2 hPa 2.3 m/s 15.9 mm 16.6° 1013.2 hPa 2.3 m/s 15.9 mm
17:00 17.7° 1012.8 hPa 1.9 m/s 16.0 mm 17.7° 1012.8 hPa 1.9 m/s 16.0 mm
20:00 13.4° 1013.6 hPa 1.6 m/s 16.7 mm 13.4° 1013.6 hPa 1.6 m/s 16.7 mm
23:00 9.0° 1014.7 hPa 1.9 m/s 16.7 mm 9.0° 1014.7 hPa 1.9 m/s 16.7 mm
 03:57     21:59    Daglengte: 18:02 Woensdag 01 Jun
02:00 7.4° 1015.6 hPa 1.7 m/s 16.7 mm 7.4° 1015.6 hPa 1.7 m/s 16.7 mm
05:00 6.9° 1016.5 hPa 2.0 m/s 16.7 mm 6.9° 1016.5 hPa 2.0 m/s 16.7 mm
08:00 12.8° 1017.5 hPa 3.2 m/s 16.7 mm 12.8° 1017.5 hPa 3.2 m/s 16.7 mm
11:00 16.7° 1017.5 hPa 3.6 m/s 16.7 mm 16.7° 1017.5 hPa 3.6 m/s 16.7 mm
14:00 18.8° 1017.1 hPa 4.1 m/s 16.7 mm 18.8° 1017.1 hPa 4.1 m/s 16.7 mm
17:00 17.4° 1017.3 hPa 4.0 m/s 16.7 mm 17.4° 1017.3 hPa 4.0 m/s 16.7 mm
20:00 14.8° 1017.5 hPa 3.2 m/s 16.7 mm 14.8° 1017.5 hPa 3.2 m/s 16.7 mm
23:00 8.9° 1018.1 hPa 2.1 m/s 16.7 mm 8.9° 1018.1 hPa 2.1 m/s 16.7 mm
 03:55     22:01    Daglengte: 18:06 Donderdag 02 Jun
02:00 7.3° 1018.4 hPa 2.0 m/s 16.7 mm 7.3° 1018.4 hPa 2.0 m/s 16.7 mm
05:00 8.2° 1017.9 hPa 1.5 m/s 16.7 mm 8.2° 1017.9 hPa 1.5 m/s 16.7 mm
08:00 12.8° 1017.7 hPa 2.5 m/s 16.7 mm 12.8° 1017.7 hPa 2.5 m/s 16.7 mm
14:00 11.0° 1016.9 hPa 2.0 m/s 19.6 mm 11.0° 1016.9 hPa 2.0 m/s 19.6 mm
20:00 13.3° 1016.0 hPa 2.0 m/s 20.1 mm 13.3° 1016.0 hPa 2.0 m/s 20.1 mm
 03:54     22:02    Daglengte: 18:08 Vrijdag 03 Jun
02:00 9.8° 1016.6 hPa 1.7 m/s 20.1 mm 9.8° 1016.6 hPa 1.7 m/s 20.1 mm
08:00 12.5° 1016.9 hPa 2.3 m/s 20.1 mm 12.5° 1016.9 hPa 2.3 m/s 20.1 mm
14:00 19.1° 1016.0 hPa 3.4 m/s 20.6 mm 19.1° 1016.0 hPa 3.4 m/s 20.6 mm
20:00 16.2° 1014.0 hPa 2.1 m/s 22.4 mm 16.2° 1014.0 hPa 2.1 m/s 22.4 mm
 03:53     22:04    Daglengte: 18:11 Zaterdag 04 Jun
02:00 13.1° 1012.4 hPa 1.0 m/s 23.2 mm 13.1° 1012.4 hPa 1.0 m/s 23.2 mm
08:00 14.7° 1010.6 hPa 2.0 m/s 23.3 mm 14.7° 1010.6 hPa 2.0 m/s 23.3 mm
14:00 18.3° 1008.6 hPa 1.8 m/s 26.3 mm 18.3° 1008.6 hPa 1.8 m/s 26.3 mm
20:00 16.8° 1006.6 hPa 1.8 m/s 28.9 mm 16.8° 1006.6 hPa 1.8 m/s 28.9 mm
 03:52     22:05    Daglengte: 18:13 Zondag 05 Jun
02:00 11.5° 1006.2 hPa 1.9 m/s 29.0 mm 11.5° 1006.2 hPa 1.9 m/s 29.0 mm
08:00 12.7° 1015.2 hPa 0.4 m/s 0.3 mm
14:00 18.6° 1014.6 hPa 0.3 m/s 0.7 mm
20:00 16.0° 1014.1 hPa 0.8 m/s 1.2 mm
 03:51     22:07    Daglengte: 18:16 Maandag 06 Jun
02:00 9.7° 1014.9 hPa 0.1 m/s 0.5 mm
08:00 13.2° 1014.7 hPa 0.6 m/s 0.4 mm
14:00 18.7° 1013.8 hPa 0.1 m/s 1.3 mm
20:00 16.7° 1012.9 hPa 0.3 m/s 1.7 mm
 03:50     22:08    Daglengte: 18:18 Dinsdag 07 Jun
02:00 10.1° 1013.2 hPa 0.1 m/s 0.3 mm
08:00 13.3° 1012.6 hPa 0.7 m/s 0.2 mm
14:00 18.1° 1011.4 hPa 0.4 m/s 0.7 mm
20:00 15.8° 1010.7 hPa 0.2 m/s 0.9 mm
 03:49     22:09    Daglengte: 18:20 Woensdag 08 Jun
02:00 9.9° 1011.2 hPa 0.2 m/s 0.9 mm
08:00 13.3° 1010.8 hPa 0.2 m/s 1.5 mm
14:00 18.5° 1009.9 hPa 0.6 m/s 2.2 mm
20:00 16.1° 1009.6 hPa 0.7 m/s 1.8 mm
 03:49     22:11    Daglengte: 18:22 Donderdag 09 Jun
02:00 10.7° 1010.3 hPa 0.3 m/s 0.6 mm
08:00 13.5° 1010.5 hPa 0.2 m/s 0.3 mm
14:00 18.8° 1009.9 hPa 1.0 m/s 0.6 mm
20:00 16.6° 1009.6 hPa 0.7 m/s 1.1 mm
 03:48     22:12    Daglengte: 18:24 Vrijdag 10 Jun
02:00 10.8° 1010.7 hPa 0.7 m/s 0.7 mm
08:00 14.1° 1010.8 hPa 0.7 m/s 0.4 mm
FMI Hirlam - 7.5 km EWN WRFDA - 12 km DWD ICON - 7 km GFS - 25 km Basiskaart






























































Updatetijd (Europe/Amsterdam) Resolutie Lengte Stap
FMI Hirlam 07:00, 13:00, 19:00, 01:00 7.5 km 49h 1h
EWN WRFDA 04:15, 10:15, 16:15, 22:15 12 km 73h 1h
DWD ICON 05:45, 11:45, 17:45, 23:45 7 km 75h 1h
GFS 02:15, 08:15, 14:15, 20:15 25 km 237h 3h
30+ mm
25-30 mm
20-25 mm
15-20 mm
10-15 mm
6-10 mm
4-6 mm
2-4 mm
1-2 mm
0.5-1 mm
0.2-0.5 mm
0.1-0.2 mm
30+ mm
25-30 mm
20-25 mm
15-20 mm
10-15 mm
6-10 mm
4-6 mm
2-4 mm
1-2 mm
0.5-1 mm
0.2-0.5 mm
0.1-0.2 mm
Sneeuwval
Natte sneeuw
Hagel
Vorst
30+ mm
25-30 mm
20-25 mm
15-20 mm
10-15 mm
6-10 mm
4-6 mm
2-4 mm
1-2 mm
0.5-1 mm
0.2-0.5 mm
0.1-0.2 mm
Sneeuwval
Natte sneeuw
Hagel
Vorst
Onweer
50 mm
40 mm
30 mm
26 mm
22 mm
18 mm
14 mm
10 mm
9 mm
8 mm
7 mm
6 mm